Home > Time Zones > World Clock > Weather > Libya > Kufra > Past weeks

Flag for Libya Weather past 2 weeks in Kufra, Libya

Now
73 °F

Clear.


Feels Like: 73 °F
Forecast: 72 / 103 °F
Wind: 8 mph from West

Location: Mersa Matruh

Current Time: Jul 23, 2014 at 9:25:16 AM

Latest Report: Jul 23, 2014 at 7:00 AM


Visibility: 5 mi

Pressure: 29.83 "Hg

Humidity: 83%

Dew point: 68 °F

Location of KufraLocation

Historic Weather in Kufra — Graph

°F

Kufra temperature yesterday

Maximum temperature yesterday: 86 °F (at 12:00 PM)
Minimum temperature yesterday: 73 °F (at 12:00 AM)
Average temperature yesterday: 79 °F

Past Weeks' High & Low Weather Summary

 TemperatureHumidityPressure
High106 °F (Jul 11, 12:00 PM)94% (Jul 9, 6:00 AM)30.01 "Hg (Jul 9, 6:00 AM)
Low68 °F (Jul 9, 5:00 AM)18% (Jul 11, 10:00 AM)29.74 "Hg (Jul 11, 6:00 PM)
Average79 °F73%29.87 "Hg
* Reported Jul 8 7:00 AM — Jul 23 7:00 AM, Kufra, Weather by CustomWeather, © 2014

Note: Actual official high and low records may vary slightly from our data, if they occured in-between our weather recording intervals... More about our weather records

Advertising

Kufra weather history for previous 24 hours

 ConditionsComfort  
Time TempWeatherWind HumidityBarometerVisibility
7:00 AM
Jul 23
73 °FClear.8 mph83%29.83 "Hg5 mi
6:00 AM72 °FClear.7 mph88%29.83 "Hg4 mi
5:00 AM72 °FClear.8 mph88%29.83 "Hg5 mi
4:00 AM72 °FClear.10 mph94%29.83 "Hg10 mi
3:00 AM73 °FClear.8 mph89%29.83 "Hg10 mi
2:00 AM73 °FClear.7 mph89%29.83 "Hg10 mi
1:00 AM73 °FClear.8 mph89%29.83 "Hg10 mi
7:00 PM
Jul 22
81 °FSunny.10 mph74%29.83 "Hg10 mi
6:00 PM82 °FSunny.10 mph70%29.83 "Hg10 mi
5:00 PM84 °FSunny.12 mph66%29.83 "Hg10 mi
4:00 PM84 °FSunny.16 mph66%29.83 "Hg10 mi
3:00 PM84 °FSunny.13 mph66%29.83 "Hg10 mi
2:00 PM84 °FSunny.15 mph66%29.83 "Hg10 mi
1:00 PM84 °FSunny.14 mph66%29.86 "Hg10 mi
12:00 PM86 °FSunny.16 mph52%29.86 "Hg10 mi
11:00 AM84 °FSunny.14 mph62%29.86 "Hg10 mi
10:00 AM82 °FPassing clouds.13 mph70%29.86 "HgN/A
9:00 AM79 °FPassing clouds.14 mph79%29.83 "HgN/A
Weather by CustomWeather, © 2014

See weather overviewHow to use our weather pages